User: anonymous   Login
Location: Unspecified
(0.0000°N, 0.0000°E)
Time: 07:03:53
(UTC+00:00)
Language:

DX 1 - Orbit

View from above orbital plane
View from above orbital plane
View from above satellite
View from above satellite

Ground track
Ground track

The orbit data is extracted from the following two-line orbital elements,

1 40071U 14037C   24201.90233786  .00003947  00000-0  46847-3 0  9999
2 40071  98.3319 115.8760 0008464  27.5360 332.6300 14.85073094542414
Epoch (UTC): 19 July 2024 21:39:21
Eccentricity: 0.0008464
inclination: 98.3319°
perigee height: 607 km
apogee height: 619 km
right ascension of ascending node: 115.8760°
argument of perigee: 27.5360°
revolutions per day: 14.85073094
mean anomaly at epoch: 332.6300°
orbit number at epoch: 54241

The dashed part of the orbit path shows where the satellite is in the earth's shadow,  

DLR